Date String (YYYY-MM-DD hh:mm:ss) UTC,Instrument flags,Ambient pressure (hPa),Sample flow (lpm),Bypass flow (lpm),Sample temperature (°C),Ambient temperature (°C),ASC tube jacket temperature (°C),LED temperature (°C),Box temperature (°C),Sample RH (%),Span deviation,Mass concentration (μg/m³),Mass concentration (μg/m³),Mass concentration (μg/m³)
DateTimeUTC,F1_M11,P_M11,Q1_M11,Q2_M11,T1_M11,T2_M11,T3_M11,T4_M11,T5_M11,U1_M11,ZSPAN_M11,X0_M11,X2_M11,X1_M11
2021-09-28 23:00:00,,0817.5,5.00,0.00,29.1,26.0,00.0,38.3,30.6,17.7,0002.0,0011.40,0005.17,0004.80
2021-09-28 23:01:00,,0817.6,5.00,0.00,29.1,26.5,00.0,38.3,30.7,17.7,0001.6,0011.53,0005.18,0004.81
2021-09-28 23:02:00,,0817.5,5.00,0.00,29.1,26.9,00.0,38.2,30.8,17.7,0001.3,0012.74,0005.20,0004.81
2021-09-28 23:03:00,,0817.5,4.99,0.00,29.1,27.3,00.0,38.2,30.9,17.7,0001.2,0013.38,0005.21,0004.81
2021-09-28 23:04:00,,0817.5,5.01,0.00,29.2,27.7,00.0,38.2,31.0,17.7,0001.4,0013.96,0005.21,0004.81
2021-09-28 23:05:00,,0817.6,4.98,0.00,29.2,28.0,00.0,38.2,31.1,17.7,0001.6,0014.42,0005.22,0004.82
2021-09-28 23:06:00,,0817.6,5.01,0.00,29.3,28.2,00.0,38.2,31.2,17.7,0001.8,0014.41,0005.25,0004.83
2021-09-28 23:07:00,,0817.6,4.99,0.00,29.3,28.4,00.0,38.3,31.2,17.4,0001.9,0014.40,0005.24,0004.82
2021-09-28 23:08:00,,0817.6,5.00,0.00,29.4,28.5,00.0,38.3,31.3,17.3,0001.7,0014.01,0005.24,0004.82
2021-09-28 23:09:00,,0817.6,5.00,0.00,29.4,28.7,00.0,38.3,31.4,17.3,0001.9,0012.89,0005.24,0004.84
2021-09-28 23:10:00,,0817.5,5.00,0.00,29.5,28.5,00.0,38.4,31.3,17.3,0002.4,0012.46,0005.24,0004.84
2021-09-28 23:11:00,,0817.5,4.99,0.00,29.4,26.6,00.0,38.4,30.8,17.4,0002.5,0012.35,0005.21,0004.85
2021-09-28 23:12:00,,0817.5,4.99,0.00,29.2,25.4,00.0,38.3,30.5,17.5,0002.8,0012.05,0005.20,0004.85
2021-09-28 23:13:00,,0817.5,5.00,0.00,29.1,25.7,00.0,38.3,30.5,17.6,0002.9,0011.30,0005.19,0004.85
2021-09-28 23:14:00,,0817.5,5.01,0.00,29.1,26.1,00.0,38.3,30.6,17.7,0002.8,0010.61,0005.18,0004.84
2021-09-28 23:15:00,,0817.5,5.00,0.00,29.1,26.7,00.0,38.2,30.8,17.8,0002.5,0010.08,0005.19,0004.85
2021-09-28 23:16:00,,0817.5,5.01,0.00,29.1,27.1,00.0,38.2,30.9,17.7,0002.3,0009.34,0005.19,0004.84
2021-09-28 23:17:00,,0817.5,5.00,0.00,29.1,27.5,00.0,38.2,30.9,17.7,0002.1,0009.43,0005.17,0004.84
2021-09-28 23:18:00,,0817.5,4.99,0.00,29.2,27.8,00.0,38.2,31.0,17.7,0002.3,0009.16,0005.17,0004.84
2021-09-28 23:19:00,,0817.6,5.02,0.00,29.2,28.1,00.0,38.2,31.1,17.6,0002.6,0009.77,0005.20,0004.85
2021-09-28 23:20:00,,0817.5,5.00,0.00,29.3,28.3,00.0,38.2,31.2,17.6,0002.7,0010.07,0005.22,0004.84
2021-09-28 23:21:00,,0817.6,5.00,0.00,29.3,28.4,00.0,38.3,31.3,17.6,0002.5,0011.12,0005.26,0004.84
2021-09-28 23:22:00,,0817.6,5.00,0.00,29.4,28.6,00.0,38.3,31.3,17.5,0002.4,0011.48,0005.33,0004.85
2021-09-28 23:23:00,,0817.5,5.01,0.00,29.5,28.7,00.0,38.3,31.4,17.3,0002.3,0012.60,0005.41,0004.87
2021-09-28 23:24:00,,0817.5,4.99,0.00,29.5,28.4,00.0,38.4,31.3,17.3,0002.4,0012.79,0005.44,0004.90
2021-09-28 23:25:00,,0817.6,5.01,0.00,29.4,26.3,00.0,38.4,30.8,17.4,0002.4,0012.92,0005.45,0004.92
2021-09-28 23:26:00,,0817.6,5.00,0.00,29.2,25.4,00.0,38.3,30.5,17.6,0002.6,0012.90,0005.46,0004.93
2021-09-28 23:27:00,,0817.5,5.00,0.00,29.1,25.8,00.0,38.3,30.6,17.6,0002.6,0013.00,0005.47,0004.95
2021-09-28 23:28:00,,0817.6,5.01,0.00,29.1,26.2,00.0,38.3,30.7,17.6,0002.5,0013.68,0005.51,0004.97
2021-09-28 23:29:00,,0817.6,4.99,0.00,29.1,26.7,00.0,38.2,30.8,17.5,0002.2,0013.63,0005.52,0004.98
2021-09-28 23:30:00,,0817.6,5.00,0.00,29.1,27.2,00.0,38.2,30.9,17.5,0002.3,0013.73,0005.51,0004.98
2021-09-28 23:31:00,,0817.5,4.99,0.00,29.1,27.5,00.0,38.2,31.0,17.6,0002.2,0013.61,0005.51,0004.99
2021-09-28 23:32:00,,0817.6,5.02,0.00,29.2,27.8,00.0,38.2,31.0,17.5,0001.9,0012.64,0005.48,0005.00
2021-09-28 23:33:00,,0817.6,5.00,0.00,29.3,28.1,00.0,38.2,31.1,17.4,0001.8,0012.45,0005.46,0005.01
2021-09-28 23:34:00,,0817.6,4.99,0.00,29.3,28.3,00.0,38.3,31.2,17.4,0001.9,0011.74,0005.43,0005.01
2021-09-28 23:35:00,,0817.6,5.01,0.00,29.3,28.5,00.0,38.3,31.3,17.1,0001.9,0011.54,0005.44,0005.01
2021-09-28 23:36:00,,0817.6,4.99,0.00,29.4,28.6,00.0,38.3,31.3,17.2,0002.0,0011.64,0005.47,0005.02
2021-09-28 23:37:00,,0817.5,4.99,0.00,29.5,28.7,00.0,38.3,31.4,17.3,0002.0,0012.61,0005.51,0005.04
2021-09-28 23:38:00,,0817.5,5.01,0.00,29.5,28.2,00.0,38.4,31.3,17.3,0002.0,0013.25,0005.51,0005.03
2021-09-28 23:39:00,,0817.5,5.00,0.00,29.4,26.1,00.0,38.4,30.7,17.4,0002.0,0012.74,0005.50,0005.02
2021-09-28 23:40:00,,0817.5,4.99,0.00,29.2,25.4,00.0,38.3,30.4,17.5,0002.4,0013.62,0005.54,0005.03
2021-09-28 23:41:00,,0817.5,5.00,0.00,29.1,25.8,00.0,38.3,30.6,17.6,0002.2,0013.03,0005.60,0005.04
2021-09-28 23:42:00,,0817.5,5.01,0.00,29.1,26.3,00.0,38.3,30.7,17.6,0002.3,0013.13,0005.64,0005.06
2021-09-28 23:43:00,,0817.5,4.99,0.00,29.1,26.8,00.0,38.2,30.8,17.5,0002.6,0013.16,0005.66,0005.08
2021-09-28 23:44:00,,0817.5,4.99,0.00,29.1,27.2,00.0,38.2,30.9,17.5,0002.6,0013.01,0005.66,0005.10
2021-09-28 23:45:00,,0817.5,5.01,0.00,29.2,27.6,00.0,38.2,31.0,17.5,0002.4,0012.56,0005.66,0005.11
2021-09-28 23:46:00,,0817.5,5.00,0.00,29.2,27.9,00.0,38.2,31.1,17.6,0002.3,0012.36,0005.64,0005.11
2021-09-28 23:47:00,,0817.5,4.99,0.00,29.3,28.1,00.0,38.2,31.1,17.5,0002.1,0012.35,0005.64,0005.11
2021-09-28 23:48:00,,0817.5,5.00,0.00,29.3,28.3,00.0,38.3,31.2,17.4,0001.9,0011.64,0005.61,0005.11
2021-09-28 23:49:00,,0817.5,5.00,0.00,29.4,28.5,00.0,38.3,31.3,17.3,0002.0,0011.03,0005.65,0005.13
2021-09-28 23:50:00,,0817.6,5.00,0.00,29.4,28.6,00.0,38.3,31.3,17.3,0002.0,0011.36,0005.66,0005.13
2021-09-28 23:51:00,,0817.6,4.98,0.00,29.5,28.7,00.0,38.3,31.4,17.3,0001.8,0012.25,0005.68,0005.14
2021-09-28 23:52:00,,0817.6,5.01,0.00,29.5,28.7,00.0,38.4,31.4,17.3,0001.8,0013.03,0005.65,0005.17
2021-09-28 23:53:00,,0817.6,5.00,0.00,29.5,26.9,00.0,38.4,30.9,17.3,0001.7,0012.91,0005.61,0005.17
2021-09-28 23:54:00,,0817.5,4.99,0.00,29.2,25.4,00.0,38.4,30.4,17.5,0001.6,0013.23,0005.59,0005.17
2021-09-28 23:55:00,,0817.5,5.01,0.00,29.2,25.6,00.0,38.3,30.5,17.6,0001.8,0013.23,0005.57,0005.16
2021-09-28 23:56:00,,0817.6,4.99,0.00,29.1,26.1,00.0,38.3,30.6,17.6,0002.1,0013.45,0005.56,0005.16
2021-09-28 23:57:00,,0817.5,5.01,0.00,29.1,26.6,00.0,38.3,30.7,17.7,0002.4,0013.70,0005.57,0005.15
2021-09-28 23:58:00,,0817.5,5.00,0.00,29.1,27.0,00.0,38.2,30.8,17.6,0002.6,0013.51,0005.57,0005.16
2021-09-28 23:59:00,,0817.6,4.99,0.00,29.1,27.4,00.0,38.2,30.9,17.5,0002.6,0013.25,0005.56,0005.17
